Location: Aldenham
(51.6667°N, 0.3500°W)
Time: 16:30:40
(UTC+00:00)

Vanguard 2 Rocket - Pass Details

Date: 25 February 2026
Orbit: 553 x 3286 km, 32.9° (Epoch: 11 March)

Event Time Altitude Azimuth Distance (km) Brightness Sun altitude
Rises 14:46:08 0° 266° (W) 7,232 12.2 21.2°
Reaches altitude 10° 14:52:07 10° 258° (WSW) 6,056 12.1 20.6°
Maximum altitude 15:06:10 29° 208° (SSW) 3,881 11.8 19.1°
Drops below altitude 10° 15:16:18 10° 154° (SSE) 4,310 10.6 17.9°
Sets 15:19:43 0° 143° (SE) 4,929 10.7 17.5°
